Precipitable_Water
0.55 0.58 0.59 0.59 0.57 0.56 0.57 0.55 0.52 0.51 0.51 0.53 0.55 0.58 0.60 0.62 0.62 0.60 0.58 0.55 0.56 0.57 0.56 0.55 0.53 0.52 0.52 0.52 0.52 0.54 0.52 0.44 0.36 0.31 0.34 0.28 0.35 0.37 0.37 0.39 0.42 0.44 0.43 0.39 0.36 0.34 0.29 0.29 0.31 0.37 0.39 0.40 0.36 0.38 0.37 0.39 0.38 0.39 0.40 0.42 0.41 0.45 0.47 0.61 0.57 0.55 0.58 0.52 0.56 0.61 0.62 0.58 0.53 0.67 0.69 0.78 0.73 0.76 0.78 0.76 0.86 0.95 0.96 1.09 1.15 1.25 1.26 1.24
0.56 0.59 0.58 0.57 0.56 0.56 0.57 0.54 0.53 0.55 0.57 0.58 0.59 0.62 0.63 0.62 0.60 0.57 0.56 0.58 0.58 0.57 0.55 0.55 0.56 0.55 0.54 0.53 0.55 0.56 0.51 0.45 0.41 0.35 0.35 0.42 0.43 0.45 0.45 0.44 0.45 0.45 0.43 0.37 0.34 0.33 0.29 0.30 0.34 0.37 0.36 0.34 0.38 0.35 0.41 0.35 0.39 0.33 0.42 0.48 0.43 0.51 0.51 0.68 0.59 0.55 0.57 0.52 0.57 0.60 0.63 0.60 0.59 0.66 0.69 0.65 0.63 0.68 0.66 0.71 0.81 0.84 0.97 1.11 1.14 1.15 1.18 1.17
0.57 0.58 0.57 0.55 0.55 0.56 0.57 0.55 0.58 0.61 0.61 0.62 0.64 0.64 0.64 0.62 0.59 0.58 0.60 0.59 0.58 0.57 0.58 0.59 0.58 0.58 0.59 0.58 0.60 0.60 0.54 0.41 0.43 0.32 0.38 0.47 0.46 0.46 0.47 0.46 0.45 0.45 0.41 0.36 0.34 0.33 0.35 0.35 0.36 0.37 0.36 0.33 0.37 0.33 0.38 0.34 0.37 0.33 0.37 0.41 0.51 0.54 0.62 0.63 0.61 0.58 0.63 0.59 0.55 0.55 0.60 0.61 0.60 0.66 0.74 0.64 0.60 0.64 0.59 0.65 0.67 0.77 0.82 0.96 1.05 1.11 1.11 1.12
0.57 0.57 0.56 0.54 0.55 0.57 0.57 0.57 0.60 0.63 0.64 0.64 0.65 0.64 0.62 0.60 0.60 0.62 0.61 0.60 0.59 0.61 0.61 0.60 0.60 0.60 0.60 0.62 0.62 0.61 0.51 0.33 0.28 0.33 0.40 0.45 0.46 0.47 0.46 0.45 0.46 0.43 0.41 0.38 0.38 0.39 0.38 0.37 0.38 0.38 0.34 0.34 0.34 0.36 0.33 0.35 0.35 0.34 0.37 0.44 0.49 0.56 0.54 0.59 0.62 0.59 0.60 0.63 0.56 0.57 0.59 0.56 0.61 0.63 0.69 0.62 0.58 0.60 0.64 0.76 0.76 0.73 0.81 0.91 1.00 1.04 1.06 1.05
0.57 0.56 0.55 0.54 0.54 0.57 0.58 0.59 0.61 0.63 0.64 0.64 0.64 0.63 0.61 0.61 0.64 0.63 0.61 0.59 0.61 0.60 0.60 0.59 0.58 0.58 0.60 0.61 0.64 0.60 0.39 0.26 0.27 0.37 0.43 0.43 0.46 0.46 0.45 0.45 0.44 0.44 0.43 0.41 0.42 0.41 0.39 0.38 0.37 0.37 0.35 0.31 0.35 0.35 0.34 0.36 0.36 0.39 0.36 0.47 0.53 0.55 0.51 0.58 0.60 0.61 0.59 0.60 0.58 0.55 0.53 0.52 0.63 0.65 0.63 0.62 0.49 0.57 0.67 0.76 0.83 0.83 0.88 0.90 0.91 0.97 1.00 0.97
0.56 0.56 0.54 0.53 0.54 0.56 0.58 0.59 0.61 0.63 0.64 0.64 0.64 0.63 0.61 0.64 0.65 0.63 0.60 0.59 0.59 0.58 0.58 0.59 0.59 0.59 0.61 0.63 0.60 0.57 0.46 0.20 0.32 0.36 0.49 0.44 0.45 0.47 0.46 0.45 0.44 0.44 0.42 0.40 0.40 0.41 0.38 0.37 0.36 0.32 0.32 0.32 0.32 0.32 0.34 0.36 0.41 0.37 0.43 0.51 0.57 0.56 0.51 0.58 0.59 0.58 0.59 0.54 0.55 0.53 0.56 0.57 0.59 0.58 0.67 0.69 0.65 0.72 0.84 0.85 0.87 0.89 0.91 0.95 0.95 0.94 0.91 0.91
0.56 0.54 0.52 0.53 0.55 0.57 0.58 0.59 0.62 0.62 0.62 0.62 0.62 0.62 0.63 0.65 0.65 0.63 0.60 0.59 0.58 0.58 0.57 0.58 0.57 0.57 0.57 0.59 0.53 0.45 0.29 0.28 0.36 0.41 0.45 0.51 0.46 0.45 0.47 0.45 0.44 0.42 0.40 0.37 0.39 0.38 0.37 0.35 0.35 0.31 0.31 0.30 0.32 0.32 0.33 0.34 0.41 0.41 0.41 0.51 0.53 0.58 0.53 0.59 0.58 0.59 0.57 0.57 0.54 0.56 0.57 0.53 0.51 0.50 0.66 0.63 0.72 0.77 0.84 0.91 0.92 0.93 0.94 0.94 0.88 0.90 0.88 0.89
0.55 0.53 0.52 0.54 0.56 0.57 0.57 0.59 0.61 0.62 0.62 0.61 0.61 0.62 0.65 0.65 0.63 0.62 0.61 0.58 0.57 0.57 0.57 0.56 0.56 0.55 0.57 0.47 0.45 0.29 0.29 0.29 0.37 0.45 0.48 0.49 0.48 0.47 0.45 0.44 0.41 0.38 0.36 0.35 0.36 0.37 0.35 0.31 0.30 0.31 0.29 0.30 0.32 0.32 0.36 0.42 0.45 0.40 0.42 0.52 0.55 0.60 0.58 0.60 0.59 0.59 0.58 0.57 0.56 0.55 0.51 0.50 0.57 0.54 0.63 0.60 0.72 0.83 0.87 0.92 0.92 0.92 0.92 0.89 0.88 0.88 0.89 0.89
0.53 0.53 0.53 0.55 0.56 0.58 0.59 0.60 0.62 0.62 0.62 0.61 0.60 0.63 0.65 0.64 0.62 0.61 0.61 0.58 0.56 0.56 0.56 0.55 0.54 0.55 0.58 0.43 0.31 0.26 0.27 0.36 0.41 0.46 0.49 0.48 0.48 0.46 0.44 0.39 0.41 0.37 0.34 0.33 0.34 0.36 0.34 0.29 0.29 0.31 0.28 0.30 0.33 0.32 0.39 0.39 0.41 0.47 0.45 0.52 0.54 0.56 0.59 0.59 0.58 0.57 0.56 0.55 0.56 0.51 0.48 0.52 0.57 0.64 0.58 0.65 0.75 0.84 0.89 0.91 0.91 0.91 0.89 0.87 0.88 0.88 0.88 0.88
0.53 0.53 0.55 0.57 0.58 0.60 0.61 0.62 0.63 0.63 0.62 0.60 0.60 0.62 0.65 0.63 0.62 0.60 0.60 0.59 0.56 0.55 0.56 0.55 0.53 0.53 0.47 0.39 0.31 0.25 0.31 0.42 0.42 0.45 0.48 0.48 0.47 0.44 0.41 0.41 0.39 0.37 0.34 0.31 0.32 0.34 0.30 0.28 0.29 0.31 0.32 0.31 0.31 0.32 0.37 0.40 0.39 0.52 0.47 0.52 0.53 0.55 0.57 0.59 0.55 0.54 0.56 0.55 0.55 0.51 0.47 0.49 0.57 0.61 0.48 0.68 0.76 0.82 0.86 0.86 0.91 0.90 0.88 0.86 0.86 0.87 0.88 0.87
0.53 0.55 0.57 0.59 0.61 0.62 0.63 0.63 0.64 0.63 0.62 0.61 0.60 0.62 0.62 0.62 0.60 0.58 0.57 0.57 0.56 0.54 0.55 0.54 0.52 0.48 0.40 0.38 0.29 0.24 0.38 0.41 0.43 0.44 0.43 0.47 0.44 0.42 0.40 0.40 0.40 0.37 0.33 0.30 0.29 0.31 0.30 0.29 0.30 0.30 0.29 0.29 0.36 0.38 0.48 0.44 0.51 0.49 0.47 0.51 0.52 0.55 0.56 0.57 0.56 0.53 0.54 0.49 0.58 0.54 0.49 0.53 0.54 0.60 0.55 0.62 0.75 0.82 0.80 0.81 0.84 0.84 0.84 0.83 0.82 0.83 0.86 0.88
0.55 0.57 0.60 0.62 0.63 0.64 0.64 0.64 0.64 0.63 0.62 0.60 0.60 0.59 0.59 0.58 0.57 0.56 0.57 0.57 0.55 0.54 0.54 0.53 0.53 0.48 0.40 0.31 0.29 0.28 0.40 0.39 0.44 0.44 0.43 0.44 0.41 0.40 0.40 0.41 0.40 0.38 0.33 0.29 0.29 0.31 0.31 0.30 0.31 0.29 0.25 0.35 0.33 0.40 0.43 0.53 0.52 0.48 0.46 0.39 0.47 0.51 0.49 0.55 0.52 0.51 0.55 0.48 0.57 0.56 0.46 0.46 0.49 0.53 0.62 0.68 0.76 0.77 0.76 0.77 0.79 0.79 0.80 0.81 0.82 0.81 0.84 0.88
0.56 0.60 0.62 0.64 0.66 0.66 0.66 0.65 0.63 0.62 0.62 0.60 0.59 0.59 0.58 0.57 0.57 0.57 0.59 0.55 0.54 0.53 0.53 0.51 0.52 0.48 0.41 0.27 0.29 0.37 0.40 0.41 0.44 0.42 0.41 0.41 0.40 0.40 0.41 0.41 0.41 0.38 0.34 0.30 0.29 0.31 0.30 0.30 0.31 0.27 0.29 0.35 0.33 0.34 0.46 0.59 0.51 0.51 0.49 0.41 0.44 0.44 0.40 0.50 0.53 0.53 0.50 0.52 0.57 0.52 0.38 0.40 0.50 0.59 0.66 0.71 0.74 0.76 0.72 0.73 0.76 0.78 0.81 0.82 0.83 0.83 0.84 0.88
0.58 0.61 0.65 0.67 0.67 0.67 0.66 0.65 0.64 0.63 0.61 0.60 0.59 0.59 0.58 0.58 0.58 0.58 0.57 0.52 0.53 0.53 0.52 0.54 0.50 0.44 0.41 0.26 0.34 0.39 0.40 0.45 0.41 0.39 0.39 0.40 0.38 0.37 0.39 0.39 0.38 0.36 0.36 0.33 0.32 0.32 0.31 0.31 0.31 0.31 0.35 0.32 0.35 0.45 0.46 0.48 0.48 0.43 0.46 0.45 0.40 0.39 0.36 0.47 0.52 0.49 0.46 0.54 0.54 0.50 0.34 0.40 0.52 0.58 0.68 0.73 0.77 0.72 0.69 0.70 0.74 0.77 0.78 0.80 0.83 0.82 0.81 0.84
0.60 0.63 0.66 0.67 0.67 0.67 0.67 0.66 0.65 0.64 0.62 0.61 0.62 0.60 0.60 0.60 0.60 0.59 0.58 0.53 0.52 0.51 0.52 0.52 0.47 0.41 0.29 0.25 0.37 0.40 0.42 0.44 0.37 0.36 0.38 0.37 0.36 0.35 0.35 0.37 0.36 0.36 0.36 0.36 0.33 0.33 0.32 0.31 0.29 0.28 0.31 0.42 0.39 0.41 0.37 0.39 0.47 0.42 0.37 0.41 0.41 0.39 0.42 0.44 0.50 0.49 0.44 0.46 0.54 0.45 0.31 0.41 0.50 0.62 0.70 0.74 0.76 0.76 0.70 0.72 0.73 0.74 0.76 0.78 0.80 0.80 0.80 0.82
0.59 0.62 0.66 0.68 0.68 0.68 0.67 0.67 0.65 0.65 0.64 0.65 0.65 0.65 0.64 0.63 0.63 0.63 0.62 0.59 0.57 0.54 0.55 0.45 0.41 0.40 0.30 0.26 0.29 0.42 0.39 0.33 0.31 0.37 0.37 0.38 0.36 0.34 0.34 0.35 0.37 0.36 0.37 0.35 0.37 0.36 0.36 0.36 0.33 0.33 0.33 0.39 0.37 0.35 0.36 0.35 0.37 0.38 0.33 0.35 0.31 0.41 0.39 0.36 0.44 0.50 0.54 0.49 0.50 0.45 0.39 0.41 0.50 0.65 0.68 0.76 0.76 0.75 0.73 0.73 0.73 0.75 0.77 0.77 0.79 0.79 0.80 0.78
0.58 0.63 0.67 0.68 0.69 0.69 0.68 0.68 0.67 0.65 0.66 0.65 0.66 0.64 0.65 0.63 0.63 0.64 0.64 0.62 0.59 0.61 0.54 0.39 0.44 0.43 0.29 0.32 0.43 0.35 0.30 0.31 0.36 0.34 0.35 0.36 0.36 0.35 0.34 0.33 0.34 0.36 0.38 0.37 0.36 0.35 0.34 0.31 0.31 0.32 0.35 0.35 0.34 0.33 0.30 0.32 0.31 0.30 0.34 0.33 0.35 0.34 0.39 0.36 0.42 0.48 0.51 0.49 0.41 0.47 0.39 0.47 0.57 0.68 0.69 0.73 0.75 0.76 0.73 0.74 0.74 0.75 0.76 0.78 0.80 0.78 0.77 0.76
0.58 0.62 0.66 0.68 0.69 0.69 0.68 0.68 0.68 0.67 0.66 0.65 0.64 0.63 0.60 0.62 0.63 0.62 0.60 0.60 0.61 0.58 0.50 0.51 0.45 0.43 0.30 0.40 0.31 0.33 0.39 0.37 0.37 0.35 0.35 0.35 0.36 0.34 0.33 0.30 0.32 0.35 0.35 0.32 0.34 0.31 0.31 0.28 0.31 0.27 0.29 0.32 0.33 0.33 0.26 0.25 0.31 0.29 0.29 0.32 0.33 0.37 0.37 0.40 0.35 0.41 0.46 0.46 0.44 0.45 0.41 0.46 0.55 0.64 0.69 0.71 0.74 0.74 0.72 0.75 0.75 0.75 0.76 0.77 0.77 0.78 0.78 0.76
0.55 0.62 0.65 0.68 0.69 0.68 0.68 0.67 0.67 0.67 0.65 0.64 0.64 0.64 0.65 0.63 0.60 0.57 0.52 0.49 0.47 0.39 0.38 0.33 0.39 0.29 0.22 0.31 0.38 0.40 0.40 0.41 0.41 0.40 0.34 0.37 0.34 0.35 0.34 0.33 0.33 0.31 0.30 0.30 0.29 0.32 0.31 0.31 0.30 0.27 0.24 0.25 0.26 0.26 0.26 0.26 0.27 0.26 0.26 0.27 0.29 0.30 0.35 0.39 0.44 0.49 0.43 0.44 0.42 0.45 0.43 0.43 0.51 0.61 0.68 0.70 0.72 0.68 0.72 0.76 0.76 0.76 0.76 0.77 0.76 0.76 0.76 0.75
0.52 0.60 0.64 0.67 0.68 0.69 0.68 0.67 0.67 0.67 0.65 0.60 0.61 0.55 0.55 0.48 0.45 0.40 0.46 0.45 0.38 0.37 0.37 0.39 0.41 0.40 0.41 0.37 0.37 0.41 0.44 0.44 0.37 0.37 0.40 0.39 0.39 0.31 0.31 0.34 0.31 0.32 0.28 0.28 0.30 0.31 0.34 0.30 0.30 0.30 0.31 0.29 0.28 0.27 0.28 0.28 0.28 0.29 0.30 0.30 0.30 0.32 0.36 0.41 0.46 0.52 0.52 0.48 0.45 0.47 0.47 0.48 0.51 0.58 0.67 0.71 0.73 0.68 0.69 0.71 0.70 0.71 0.73 0.74 0.74 0.75 0.76 0.76
0.47 0.57 0.62 0.66 0.68 0.69 0.68 0.68 0.67 0.66 0.67 0.66 0.61 0.53 0.43 0.43 0.38 0.30 0.41 0.38 0.44 0.42 0.42 0.39 0.40 0.37 0.35 0.39 0.41 0.40 0.37 0.37 0.42 0.39 0.41 0.44 0.37 0.35 0.27 0.33 0.30 0.28 0.28 0.28 0.28 0.31 0.32 0.28 0.29 0.29 0.30 0.30 0.30 0.31 0.31 0.30 0.31 0.30 0.30 0.29 0.30 0.33 0.33 0.42 0.46 0.48 0.57 0.46 0.48 0.50 0.50 0.52 0.54 0.59 0.68 0.71 0.69 0.66 0.68 0.70 0.70 0.70 0.72 0.74 0.75 0.76 0.76 0.79
0.45 0.52 0.61 0.63 0.67 0.69 0.69 0.68 0.67 0.67 0.70 0.72 0.58 0.48 0.53 0.57 0.61 0.62 0.60 0.33 0.39 0.42 0.42 0.39 0.41 0.37 0.41 0.42 0.42 0.42 0.40 0.35 0.35 0.39 0.42 0.45 0.36 0.35 0.29 0.33 0.29 0.27 0.29 0.29 0.28 0.29 0.29 0.30 0.29 0.31 0.33 0.34 0.34 0.33 0.32 0.31 0.30 0.31 0.30 0.31 0.31 0.34 0.37 0.42 0.44 0.47 0.55 0.49 0.48 0.53 0.49 0.51 0.57 0.58 0.66 0.66 0.66 0.70 0.73 0.75 0.75 0.73 0.71 0.72 0.74 0.74 0.75 0.77
0.44 0.47 0.57 0.63 0.65 0.69 0.69 0.68 0.66 0.67 0.69 0.62 0.55 0.55 0.53 0.67 0.76 0.72 0.63 0.45 0.34 0.42 0.40 0.38 0.35 0.36 0.36 0.41 0.41 0.43 0.34 0.31 0.32 0.38 0.40 0.43 0.34 0.34 0.33 0.30 0.28 0.28 0.29 0.30 0.30 0.28 0.28 0.28 0.31 0.34 0.34 0.33 0.32 0.32 0.32 0.30 0.30 0.29 0.30 0.32 0.33 0.36 0.34 0.34 0.39 0.43 0.49 0.49 0.48 0.50 0.46 0.48 0.53 0.58 0.60 0.64 0.65 0.67 0.73 0.75 0.77 0.76 0.72 0.71 0.72 0.75 0.75 0.75
0.43 0.46 0.51 0.60 0.66 0.66 0.68 0.68 0.65 0.68 0.60 0.62 0.61 0.59 0.69 0.76 0.76 0.68 0.59 0.42 0.33 0.36 0.40 0.40 0.40 0.38 0.36 0.36 0.40 0.40 0.35 0.33 0.37 0.34 0.44 0.43 0.36 0.36 0.36 0.32 0.30 0.29 0.28 0.29 0.30 0.29 0.29 0.29 0.33 0.33 0.32 0.31 0.30 0.31 0.30 0.31 0.31 0.31 0.31 0.32 0.33 0.33 0.35 0.34 0.37 0.39 0.44 0.49 0.49 0.47 0.44 0.44 0.49 0.50 0.55 0.61 0.67 0.66 0.69 0.69 0.71 0.74 0.75 0.78 0.80 0.79 0.80 0.79
0.43 0.44 0.49 0.56 0.61 0.67 0.65 0.67 0.58 0.56 0.62 0.65 0.62 0.72 0.75 0.78 0.78 0.71 0.54 0.35 0.39 0.35 0.47 0.43 0.45 0.40 0.42 0.50 0.46 0.38 0.36 0.37 0.37 0.41 0.44 0.43 0.36 0.37 0.34 0.36 0.34 0.28 0.29 0.29 0.30 0.28 0.28 0.32 0.34 0.32 0.31 0.31 0.30 0.30 0.30 0.29 0.31 0.31 0.33 0.33 0.32 0.32 0.32 0.34 0.36 0.35 0.35 0.39 0.42 0.41 0.33 0.36 0.47 0.48 0.49 0.56 0.62 0.59 0.64 0.62 0.64 0.68 0.72 0.75 0.74 0.76 0.80 0.81
0.43 0.44 0.47 0.52 0.58 0.61 0.65 0.57 0.52 0.56 0.58 0.54 0.64 0.74 0.77 0.83 0.80 0.78 0.58 0.35 0.26 0.34 0.44 0.36 0.51 0.35 0.53 0.38 0.43 0.40 0.40 0.31 0.40 0.41 0.45 0.42 0.44 0.38 0.34 0.32 0.37 0.29 0.31 0.31 0.31 0.31 0.30 0.34 0.33 0.31 0.31 0.31 0.30 0.30 0.31 0.32 0.30 0.30 0.32 0.34 0.33 0.32 0.32 0.33 0.33 0.32 0.30 0.29 0.43 0.41 0.27 0.27 0.36 0.38 0.45 0.52 0.55 0.54 0.61 0.60 0.62 0.66 0.68 0.69 0.72 0.76 0.78 0.80
0.42 0.44 0.48 0.52 0.56 0.58 0.51 0.50 0.53 0.56 0.52 0.54 0.72 0.77 0.79 0.85 0.88 0.71 0.58 0.30 0.25 0.34 0.35 0.40 0.47 0.37 0.50 0.39 0.41 0.43 0.30 0.29 0.43 0.44 0.42 0.44 0.39 0.43 0.38 0.28 0.31 0.33 0.35 0.36 0.34 0.28 0.34 0.34 0.33 0.33 0.31 0.30 0.30 0.29 0.30 0.30 0.28 0.28 0.33 0.33 0.32 0.31 0.30 0.30 0.29 0.28 0.28 0.32 0.36 0.36 0.34 0.27 0.26 0.38 0.47 0.50 0.50 0.51 0.54 0.56 0.59 0.63 0.64 0.67 0.70 0.74 0.77 0.80
0.40 0.43 0.47 0.52 0.56 0.60 0.53 0.57 0.52 0.50 0.55 0.66 0.74 0.79 0.83 0.81 0.84 0.74 0.44 0.20 0.20 0.42 0.34 0.38 0.41 0.50 0.48 0.43 0.44 0.36 0.34 0.42 0.37 0.37 0.45 0.46 0.48 0.38 0.38 0.31 0.33 0.31 0.34 0.35 0.25 0.31 0.32 0.31 0.32 0.30 0.31 0.29 0.28 0.30 0.32 0.32 0.28 0.29 0.32 0.32 0.31 0.30 0.29 0.28 0.27 0.27 0.29 0.27 0.25 0.35 0.36 0.26 0.26 0.37 0.42 0.42 0.37 0.42 0.48 0.55 0.58 0.60 0.63 0.66 0.70 0.75 0.78 0.80
0.40 0.43 0.47 0.52 0.56 0.60 0.61 0.57 0.54 0.54 0.66 0.73 0.76 0.82 0.87 0.83 0.69 0.52 0.33 0.20 0.31 0.37 0.54 0.42 0.55 0.47 0.43 0.44 0.39 0.39 0.37 0.41 0.33 0.37 0.44 0.45 0.44 0.43 0.32 0.32 0.33 0.32 0.33 0.33 0.27 0.29 0.33 0.33 0.32 0.32 0.29 0.28 0.30 0.32 0.32 0.31 0.28 0.32 0.33 0.33 0.32 0.31 0.30 0.30 0.28 0.28 0.29 0.26 0.22 0.32 0.33 0.24 0.23 0.35 0.39 0.41 0.37 0.41 0.47 0.52 0.57 0.61 0.64 0.67 0.71 0.76 0.77 0.75
0.39 0.44 0.48 0.52 0.54 0.57 0.57 0.62 0.59 0.68 0.74 0.75 0.79 0.82 0.81 0.71 0.52 0.37 0.23 0.18 0.40 0.30 0.41 0.39 0.44 0.36 0.41 0.35 0.33 0.38 0.34 0.35 0.38 0.39 0.41 0.39 0.40 0.44 0.38 0.42 0.35 0.32 0.30 0.32 0.31 0.32 0.33 0.38 0.38 0.32 0.30 0.31 0.32 0.32 0.32 0.32 0.31 0.33 0.31 0.28 0.29 0.29 0.29 0.30 0.29 0.26 0.26 0.22 0.26 0.29 0.31 0.27 0.22 0.30 0.39 0.35 0.48 0.47 0.50 0.56 0.59 0.64 0.67 0.69 0.68 0.69 0.71 0.72
0.38 0.44 0.48 0.54 0.48 0.53 0.56 0.53 0.60 0.72 0.74 0.78 0.83 0.75 0.66 0.52 0.38 0.27 0.19 0.27 0.40 0.34 0.41 0.39 0.36 0.42 0.35 0.35 0.30 0.34 0.35 0.34 0.34 0.37 0.32 0.39 0.36 0.38 0.36 0.33 0.37 0.31 0.29 0.29 0.28 0.31 0.32 0.34 0.33 0.34 0.37 0.36 0.33 0.29 0.32 0.32 0.31 0.28 0.28 0.26 0.26 0.27 0.29 0.27 0.28 0.27 0.20 0.21 0.29 0.30 0.27 0.33 0.21 0.32 0.40 0.46 0.48 0.52 0.55 0.56 0.59 0.62 0.62 0.63 0.66 0.68 0.70 0.70
0.36 0.44 0.49 0.50 0.55 0.61 0.53 0.52 0.66 0.74 0.75 0.80 0.79 0.63 0.53 0.34 0.33 0.23 0.21 0.37 0.27 0.31 0.38 0.33 0.37 0.36 0.34 0.34 0.32 0.32 0.32 0.32 0.34 0.34 0.31 0.32 0.30 0.31 0.30 0.29 0.30 0.26 0.25 0.26 0.25 0.29 0.28 0.28 0.32 0.34 0.37 0.34 0.31 0.34 0.30 0.31 0.31 0.30 0.28 0.27 0.22 0.19 0.21 0.17 0.26 0.20 0.20 0.20 0.28 0.27 0.29 0.26 0.29 0.36 0.37 0.42 0.46 0.50 0.56 0.60 0.62 0.63 0.61 0.61 0.59 0.63 0.65 0.66
0.35 0.43 0.49 0.54 0.59 0.59 0.62 0.69 0.74 0.77 0.79 0.81 0.68 0.59 0.41 0.29 0.18 0.27 0.26 0.29 0.28 0.39 0.32 0.42 0.34 0.35 0.33 0.32 0.30 0.33 0.34 0.29 0.32 0.33 0.36 0.33 0.30 0.27 0.30 0.30 0.28 0.30 0.25 0.22 0.24 0.26 0.25 0.30 0.31 0.30 0.34 0.36 0.33 0.28 0.26 0.28 0.28 0.26 0.25 0.23 0.22 0.17 0.16 0.13 0.15 0.18 0.19 0.27 0.28 0.25 0.28 0.21 0.29 0.38 0.43 0.45 0.52 0.55 0.57 0.58 0.59 0.56 0.55 0.56 0.58 0.59 0.60 0.62
0.35 0.44 0.50 0.61 0.64 0.68 0.71 0.76 0.77 0.80 0.76 0.74 0.63 0.45 0.37 0.22 0.21 0.31 0.28 0.29 0.32 0.39 0.37 0.36 0.35 0.34 0.33 0.31 0.30 0.35 0.30 0.30 0.32 0.30 0.34 0.31 0.33 0.29 0.30 0.29 0.29 0.27 0.28 0.23 0.26 0.23 0.22 0.24 0.27 0.29 0.29 0.35 0.34 0.31 0.29 0.26 0.29 0.27 0.28 0.27 0.24 0.22 0.18 0.15 0.17 0.15 0.16 0.20 0.24 0.28 0.22 0.24 0.22 0.35 0.42 0.47 0.52 0.53 0.54 0.55 0.55 0.56 0.55 0.56 0.57 0.56 0.58 0.58
0.37 0.46 0.58 0.63 0.66 0.72 0.77 0.80 0.81 0.83 0.76 0.67 0.50 0.41 0.25 0.22 0.27 0.27 0.28 0.30 0.33 0.35 0.34 0.38 0.33 0.31 0.28 0.31 0.33 0.33 0.35 0.27 0.32 0.32 0.31 0.32 0.28 0.30 0.30 0.29 0.30 0.30 0.27 0.25 0.20 0.25 0.20 0.21 0.26 0.32 0.32 0.36 0.32 0.34 0.33 0.30 0.32 0.32 0.30 0.33 0.28 0.23 0.26 0.19 0.21 0.19 0.19 0.19 0.19 0.26 0.20 0.25 0.28 0.38 0.42 0.50 0.51 0.53 0.53 0.54 0.55 0.54 0.54 0.56 0.56 0.56 0.57 0.58
0.42 0.46 0.54 0.56 0.60 0.72 0.80 0.80 0.82 0.81 0.72 0.53 0.39 0.28 0.24 0.29 0.27 0.29 0.30 0.37 0.36 0.33 0.33 0.34 0.33 0.30 0.28 0.29 0.32 0.33 0.34 0.34 0.28 0.32 0.29 0.31 0.30 0.30 0.31 0.31 0.31 0.30 0.28 0.23 0.22 0.20 0.23 0.22 0.28 0.32 0.36 0.34 0.33 0.35 0.32 0.33 0.24 0.30 0.34 0.26 0.27 0.31 0.29 0.24 0.24 0.25 0.24 0.21 0.18 0.22 0.23 0.33 0.39 0.39 0.46 0.48 0.48 0.51 0.51 0.52 0.53 0.53 0.53 0.54 0.54 0.55 0.56 0.57
0.38 0.46 0.42 0.52 0.61 0.72 0.79 0.80 0.81 0.75 0.62 0.47 0.33 0.25 0.30 0.29 0.33 0.31 0.34 0.33 0.36 0.39 0.32 0.30 0.29 0.31 0.28 0.27 0.29 0.30 0.30 0.31 0.26 0.31 0.28 0.32 0.29 0.31 0.31 0.32 0.35 0.34 0.31 0.32 0.24 0.25 0.27 0.25 0.29 0.30 0.31 0.34 0.37 0.36 0.35 0.36 0.34 0.36 0.28 0.27 0.33 0.35 0.32 0.26 0.18 0.20 0.20 0.16 0.18 0.23 0.20 0.21 0.24 0.27 0.40 0.44 0.45 0.48 0.49 0.51 0.52 0.55 0.53 0.53 0.55 0.56 0.57 0.59
0.36 0.43 0.45 0.47 0.62 0.75 0.80 0.84 0.77 0.67 0.54 0.41 0.30 0.29 0.33 0.28 0.33 0.33 0.35 0.36 0.34 0.37 0.34 0.30 0.34 0.34 0.28 0.27 0.28 0.28 0.29 0.30 0.29 0.27 0.28 0.30 0.27 0.35 0.31 0.32 0.34 0.34 0.35 0.35 0.30 0.25 0.30 0.24 0.26 0.28 0.29 0.32 0.37 0.36 0.40 0.37 0.38 0.30 0.27 0.36 0.28 0.24 0.24 0.27 0.22 0.16 0.15 0.15 0.16 0.20 0.23 0.24 0.26 0.28 0.35 0.40 0.41 0.48 0.51 0.54 0.52 0.52 0.54 0.54 0.56 0.58 0.59 0.61
0.42 0.40 0.32 0.47 0.69 0.76 0.78 0.80 0.68 0.56 0.44 0.32 0.30 0.26 0.30 0.30 0.32 0.32 0.35 0.38 0.37 0.36 0.32 0.34 0.32 0.31 0.31 0.27 0.31 0.29 0.30 0.28 0.26 0.26 0.25 0.28 0.28 0.31 0.31 0.35 0.32 0.35 0.34 0.35 0.31 0.27 0.27 0.22 0.24 0.28 0.29 0.31 0.35 0.36 0.27 0.33 0.38 0.39 0.41 0.35 0.36 0.33 0.24 0.23 0.23 0.21 0.22 0.17 0.16 0.17 0.22 0.19 0.30 0.30 0.31 0.33 0.39 0.43 0.44 0.45 0.49 0.50 0.50 0.52 0.54 0.55 0.57 0.61
0.41 0.30 0.32 0.52 0.66 0.73 0.78 0.69 0.58 0.45 0.37 0.28 0.29 0.30 0.33 0.29 0.31 0.34 0.36 0.36 0.34 0.35 0.32 0.32 0.30 0.29 0.28 0.34 0.30 0.29 0.30 0.27 0.27 0.27 0.28 0.28 0.30 0.34 0.33 0.39 0.35 0.34 0.34 0.34 0.31 0.33 0.27 0.27 0.19 0.25 0.28 0.32 0.30 0.32 0.29 0.32 0.31 0.31 0.35 0.32 0.35 0.31 0.33 0.29 0.29 0.24 0.21 0.18 0.18 0.16 0.16 0.22 0.33 0.35 0.34 0.37 0.39 0.42 0.42 0.43 0.46 0.48 0.49 0.51 0.56 0.57 0.57 0.59
0.43 0.37 0.40 0.55 0.61 0.68 0.64 0.56 0.45 0.35 0.34 0.37 0.34 0.32 0.30 0.29 0.31 0.33 0.36 0.37 0.36 0.37 0.34 0.32 0.31 0.30 0.31 0.27 0.30 0.31 0.28 0.27 0.26 0.26 0.28 0.28 0.31 0.27 0.36 0.39 0.39 0.35 0.36 0.34 0.34 0.32 0.27 0.27 0.20 0.23 0.28 0.27 0.30 0.34 0.34 0.38 0.37 0.32 0.32 0.29 0.29 0.29 0.26 0.23 0.21 0.31 0.28 0.24 0.20 0.17 0.16 0.26 0.37 0.37 0.37 0.39 0.42 0.42 0.44 0.44 0.45 0.47 0.49 0.52 0.55 0.59 0.58 0.59
0.36 0.23 0.37 0.56 0.63 0.59 0.50 0.38 0.35 0.39 0.36 0.31 0.32 0.33 0.30 0.34 0.31 0.32 0.35 0.37 0.38 0.36 0.39 0.35 0.35 0.34 0.30 0.30 0.33 0.27 0.28 0.28 0.26 0.27 0.27 0.31 0.31 0.32 0.35 0.41 0.38 0.39 0.37 0.33 0.32 0.33 0.31 0.28 0.26 0.22 0.26 0.30 0.33 0.37 0.42 0.42 0.42 0.37 0.35 0.33 0.33 0.34 0.33 0.26 0.20 0.22 0.28 0.31 0.27 0.26 0.19 0.25 0.39 0.42 0.41 0.42 0.43 0.44 0.46 0.47 0.47 0.49 0.50 0.52 0.55 0.58 0.59 0.60
0.29 0.33 0.55 0.56 0.60 0.52 0.40 0.36 0.36 0.33 0.31 0.38 0.39 0.35 0.35 0.32 0.31 0.34 0.32 0.35 0.33 0.36 0.34 0.32 0.34 0.30 0.31 0.32 0.29 0.29 0.29 0.27 0.28 0.29 0.29 0.30 0.31 0.36 0.38 0.39 0.39 0.37 0.37 0.36 0.35 0.34 0.34 0.29 0.23 0.21 0.27 0.31 0.36 0.41 0.43 0.42 0.39 0.41 0.41 0.37 0.37 0.32 0.32 0.29 0.28 0.30 0.23 0.27 0.23 0.21 0.20 0.29 0.44 0.45 0.44 0.45 0.45 0.48 0.51 0.52 0.50 0.49 0.47 0.48 0.51 0.55 0.57 0.59
0.43 0.41 0.44 0.57 0.54 0.48 0.35 0.25 0.25 0.29 0.31 0.33 0.35 0.33 0.36 0.35 0.32 0.31 0.29 0.33 0.32 0.32 0.33 0.32 0.32 0.35 0.32 0.33 0.30 0.28 0.29 0.23 0.27 0.29 0.29 0.32 0.33 0.40 0.39 0.39 0.40 0.37 0.38 0.37 0.32 0.37 0.31 0.25 0.24 0.21 0.22 0.26 0.29 0.32 0.36 0.40 0.38 0.35 0.32 0.38 0.36 0.37 0.36 0.35 0.34 0.35 0.24 0.26 0.25 0.21 0.17 0.25 0.43 0.46 0.46 0.46 0.47 0.49 0.49 0.48 0.47 0.43 0.45 0.45 0.47 0.49 0.54 0.58
0.49 0.46 0.42 0.49 0.48 0.38 0.27 0.33 0.30 0.27 0.28 0.27 0.28 0.29 0.31 0.33 0.35 0.34 0.32 0.30 0.34 0.35 0.33 0.33 0.35 0.34 0.30 0.34 0.31 0.29 0.29 0.34 0.28 0.30 0.36 0.33 0.35 0.41 0.40 0.41 0.40 0.40 0.41 0.41 0.37 0.35 0.28 0.23 0.26 0.20 0.15 0.15 0.16 0.18 0.21 0.26 0.30 0.34 0.36 0.36 0.37 0.35 0.33 0.29 0.29 0.27 0.24 0.30 0.27 0.24 0.23 0.29 0.39 0.44 0.45 0.47 0.48 0.47 0.48 0.45 0.45 0.46 0.47 0.47 0.49 0.51 0.52 0.54
0.44 0.33 0.41 0.41 0.42 0.37 0.30 0.35 0.35 0.30 0.28 0.26 0.24 0.30 0.32 0.30 0.32 0.36 0.35 0.33 0.35 0.35 0.36 0.34 0.34 0.35 0.30 0.31 0.28 0.28 0.28 0.31 0.32 0.29 0.29 0.32 0.34 0.38 0.42 0.42 0.42 0.42 0.43 0.42 0.39 0.36 0.29 0.28 0.29 0.26 0.24 0.23 0.24 0.26 0.30 0.31 0.33 0.28 0.33 0.35 0.37 0.37 0.38 0.36 0.32 0.27 0.25 0.29 0.24 0.30 0.31 0.30 0.32 0.38 0.42 0.45 0.45 0.43 0.43 0.44 0.43 0.45 0.47 0.50 0.51 0.53 0.55 0.56
0.50 0.39 0.41 0.33 0.35 0.34 0.34 0.32 0.29 0.29 0.27 0.28 0.22 0.27 0.26 0.31 0.33 0.32 0.37 0.31 0.34 0.35 0.34 0.34 0.32 0.28 0.29 0.31 0.29 0.29 0.29 0.29 0.29 0.30 0.31 0.33 0.36 0.39 0.42 0.47 0.46 0.45 0.43 0.41 0.41 0.37 0.32 0.31 0.28 0.32 0.30 0.30 0.30 0.31 0.33 0.33 0.30 0.32 0.31 0.30 0.35 0.36 0.37 0.33 0.27 0.26 0.34 0.26 0.25 0.36 0.35 0.29 0.32 0.36 0.40 0.41 0.43 0.44 0.45 0.45 0.45 0.46 0.46 0.48 0.51 0.53 0.56 0.59
0.34 0.48 0.48 0.58 0.37 0.30 0.28 0.29 0.32 0.30 0.33 0.29 0.33 0.31 0.29 0.29 0.30 0.28 0.32 0.36 0.35 0.36 0.30 0.30 0.31 0.32 0.33 0.30 0.32 0.26 0.27 0.28 0.28 0.27 0.31 0.33 0.34 0.36 0.35 0.41 0.43 0.46 0.46 0.41 0.42 0.38 0.33 0.27 0.30 0.33 0.33 0.32 0.34 0.33 0.35 0.35 0.35 0.34 0.34 0.34 0.31 0.34 0.35 0.30 0.30 0.35 0.34 0.26 0.22 0.29 0.36 0.33 0.35 0.38 0.40 0.42 0.43 0.44 0.45 0.46 0.48 0.48 0.48 0.51 0.52 0.52 0.53 0.56
0.47 0.55 0.53 0.60 0.39 0.41 0.39 0.44 0.34 0.32 0.29 0.30 0.31 0.29 0.29 0.28 0.28 0.35 0.33 0.32 0.32 0.32 0.33 0.26 0.27 0.29 0.30 0.36 0.32 0.29 0.29 0.24 0.22 0.31 0.29 0.30 0.31 0.34 0.34 0.35 0.41 0.45 0.44 0.42 0.40 0.40 0.34 0.32 0.33 0.34 0.33 0.33 0.34 0.34 0.35 0.34 0.35 0.35 0.35 0.36 0.37 0.36 0.34 0.33 0.33 0.37 0.37 0.32 0.34 0.35 0.36 0.34 0.38 0.41 0.42 0.45 0.47 0.46 0.47 0.49 0.51 0.52 0.51 0.49 0.50 0.51 0.52 0.55
0.39 0.41 0.48 0.53 0.51 0.46 0.42 0.40 0.38 0.33 0.30 0.33 0.24 0.27 0.28 0.27 0.28 0.32 0.33 0.33 0.28 0.31 0.34 0.27 0.30 0.31 0.32 0.32 0.33 0.30 0.32 0.30 0.30 0.23 0.29 0.31 0.31 0.30 0.33 0.35 0.38 0.40 0.43 0.42 0.40 0.43 0.35 0.35 0.33 0.35 0.32 0.35 0.33 0.35 0.37 0.35 0.33 0.29 0.32 0.33 0.35 0.37 0.34 0.35 0.34 0.35 0.37 0.34 0.36 0.36 0.35 0.34 0.45 0.49 0.45 0.47 0.49 0.51 0.51 0.51 0.51 0.52 0.53 0.52 0.50 0.51 0.55 0.57
0.52 0.59 0.61 0.50 0.42 0.46 0.43 0.40 0.36 0.35 0.33 0.34 0.28 0.33 0.28 0.29 0.29 0.31 0.34 0.37 0.35 0.32 0.30 0.29 0.34 0.33 0.32 0.31 0.33 0.33 0.38 0.36 0.34 0.35 0.35 0.31 0.29 0.35 0.29 0.34 0.32 0.36 0.36 0.38 0.38 0.41 0.36 0.34 0.33 0.34 0.27 0.30 0.33 0.35 0.36 0.36 0.35 0.30 0.28 0.28 0.30 0.30 0.28 0.31 0.30 0.35 0.32 0.30 0.33 0.34 0.31 0.35 0.46 0.50 0.48 0.49 0.50 0.49 0.47 0.50 0.52 0.52 0.53 0.52 0.53 0.54 0.55 0.58
0.57 0.67 0.67 0.57 0.43 0.47 0.41 0.42 0.40 0.37 0.31 0.35 0.33 0.34 0.28 0.30 0.35 0.35 0.29 0.35 0.36 0.38 0.41 0.38 0.36 0.32 0.31 0.29 0.29 0.36 0.43 0.38 0.39 0.39 0.38 0.40 0.39 0.39 0.34 0.35 0.32 0.35 0.37 0.37 0.42 0.37 0.37 0.34 0.29 0.31 0.25 0.25 0.33 0.30 0.31 0.30 0.30 0.29 0.28 0.29 0.32 0.31 0.33 0.35 0.38 0.40 0.37 0.38 0.31 0.30 0.32 0.41 0.44 0.48 0.44 0.46 0.47 0.47 0.47 0.49 0.49 0.49 0.50 0.51 0.52 0.54 0.57 0.58
Wind_Speed
22 21 21 21 20 19 18 17 16 15 15 14 13 13 12 11 10 10 9 8 7 7 6 6 6 6 6 7 8 9 10 11 11 10 10 10 9 10 10 11 13 13 12 11 11 11 12 12 12 11 10 10 9 9 9 8 9 9 9 11 11 11 11 9 9 9 10 11 11 9 7 7 6 6 5 5 6 6 6 6 7 7 8 9 10 10 11 11
22 21 21 21 20 19 18 17 16 16 15 14 14 13 12 12 11 10 10 9 9 8 8 9 9 9 9 10 11 12 13 12 12 12 12 11 11 11 11 12 13 12 11 10 10 11 12 13 12 11 10 9 9 8 9 9 9 8 9 10 10 11 11 8 9 10 10 10 10 9 7 6 6 5 4 5 6 6 6 6 7 9 10 10 10 10 11 10
21 21 21 21 20 18 17 16 16 16 15 15 14 13 13 12 11 11 10 10 10 10 11 11 11 11 11 12 13 14 13 13 13 13 12 11 11 11 11 12 12 11 10 10 10 11 11 12 11 10 9 9 9 8 9 9 9 9 8 9 10 11 11 9 10 10 9 9 9 8 6 6 5 4 3 4 5 5 5 5 7 9 10 10 10 10 10 10
21 21 21 21 20 18 17 16 15 15 15 14 14 13 13 12 12 11 11 11 11 12 12 12 12 12 12 13 14 14 13 13 13 12 11 10 10 10 10 11 11 11 10 10 11 11 11 11 11 10 9 9 10 9 9 9 9 8 7 10 12 11 10 9 9 9 9 9 8 7 6 5 4 3 3 4 4 3 4 5 6 9 9 9 9 9 9 9
21 21 21 20 19 18 17 16 15 14 14 14 13 13 12 12 12 11 11 11 12 12 12 12 12 12 12 12 12 12 10 11 12 10 10 10 9 10 10 11 11 10 10 11 11 11 12 11 10 10 9 10 10 9 10 10 10 9 9 12 12 11 10 9 9 9 8 7 6 5 4 4 3 3 3 2 2 3 4 5 6 8 8 8 9 9 9 8
20 21 21 20 19 18 17 15 14 14 13 13 13 13 12 12 12 11 11 11 12 12 12 12 11 11 12 11 11 10 9 11 11 10 10 10 10 10 10 11 10 10 10 11 12 11 11 11 11 10 10 10 10 10 11 11 9 10 12 12 10 9 10 9 8 8 7 6 5 4 3 3 3 3 2 2 2 3 4 5 7 8 8 8 9 9 8 7
20 20 20 20 19 18 17 16 14 13 13 13 13 13 12 12 11 11 11 11 11 11 11 11 11 11 12 12 12 12 13 14 11 10 10 10 10 10 11 11 10 10 11 11 11 11 10 10 10 10 10 10 11 11 11 10 8 10 12 11 9 9 9 8 7 6 5 5 4 3 3 3 3 3 3 3 3 3 5 6 7 8 8 8 8 8 8 7
20 20 20 19 19 18 17 16 15 14 13 13 13 13 12 12 11 11 11 11 11 11 11 11 11 12 12 12 13 14 15 14 11 11 11 10 10 10 11 11 10 10 10 10 10 10 10 10 10 10 10 10 11 11 11 10 9 10 11 10 9 8 8 7 6 6 4 4 4 3 3 3 3 4 3 4 4 4 6 7 7 8 8 8 8 8 7 6
19 20 20 19 18 18 17 17 15 14 13 13 12 12 12 12 11 11 11 11 11 11 11 11 11 12 12 11 12 14 13 12 11 11 10 10 10 10 10 10 10 10 9 9 9 9 9 9 10 9 9 11 11 11 9 8 8 9 10 9 9 8 7 7 6 5 4 4 3 3 3 4 4 4 4 4 4 5 6 6 7 8 7 7 7 7 7 6
19 19 19 19 18 18 17 17 16 15 14 13 12 12 12 12 11 11 11 11 10 11 11 11 11 11 12 11 12 13 12 10 10 10 10 10 10 10 9 9 9 9 8 8 8 8 8 8 9 9 11 11 10 9 6 6 8 9 9 9 8 7 6 6 5 5 4 3 3 3 4 4 4 2 2 4 5 6 6 6 7 7 6 6 7 7 6 6
18 19 19 18 18 18 17 17 17 16 15 14 13 12 12 12 11 11 11 11 11 10 11 11 12 12 11 10 11 12 10 10 10 9 9 9 9 9 9 8 8 8 7 7 7 7 7 8 10 10 10 10 9 8 6 8 10 9 9 8 7 6 5 4 4 4 3 2 2 3 3 3 3 1 3 6 6 6 6 6 7 6 6 6 6 6 6 5
17 18 18 18 18 18 17 17 17 16 16 15 14 13 12 12 12 11 11 11 11 11 11 12 12 12 11 11 12 11 9 9 9 9 9 9 9 8 8 8 8 7 6 6 7 7 7 9 9 8 9 9 8 7 7 8 9 8 8 7 6 5 4 3 3 3 2 2 2 3 3 3 3 3 5 7 6 6 6 6 7 6 6 6 6 6 5 5
16 17 17 18 18 18 18 17 17 17 16 16 15 14 13 12 12 12 12 12 12 12 12 11 11 11 10 12 12 10 9 8 8 8 8 8 8 8 8 8 7 7 6 6 6 7 8 9 8 8 8 8 6 6 7 7 7 7 6 5 5 4 3 3 2 3 3 2 2 2 2 3 4 5 6 6 6 6 6 6 6 6 6 6 6 6 5 5
16 16 17 17 17 18 18 17 17 17 17 17 16 15 15 14 13 13 13 13 13 12 12 11 11 10 10 11 10 9 8 8 7 7 7 7 7 8 7 7 7 7 7 7 7 8 8 9 8 8 6 6 6 7 7 6 5 5 4 4 4 3 4 4 3 4 3 2 3 2 2 3 4 5 6 6 6 6 6 6 6 6 6 6 6 6 6 6
15 15 16 16 17 17 17 17 17 17 17 17 17 17 16 16 15 14 14 14 13 12 12 11 11 10 11 11 9 8 8 7 7 6 6 6 6 7 7 7 7 7 8 7 8 8 8 8 8 7 6 7 8 7 6 4 4 4 4 4 4 3 4 4 4 4 3 3 4 4 2 3 4 5 6 6 6 7 6 6 6 6 6 6 6 6 6 6
14 14 15 15 15 16 17 17 17 17 17 17 17 17 18 18 17 16 15 14 14 13 12 11 11 9 10 10 8 7 7 6 5 5 5 5 5 6 7 7 7 7 8 8 8 8 8 7 7 6 6 7 7 6 5 4 4 4 4 4 4 4 4 5 6 5 4 3 6 5 3 2 3 5 6 5 7 7 6 6 7 6 6 6 6 6 6 5
13 13 14 14 14 15 16 16 16 16 16 16 16 17 17 18 18 17 16 15 15 14 13 12 11 10 11 9 8 7 7 6 5 4 4 4 4 5 6 6 6 7 7 7 7 7 7 6 5 5 5 6 6 5 4 4 4 4 5 4 5 5 4 5 6 7 6 5 6 7 6 3 3 5 5 5 6 8 7 7 7 7 6 7 7 7 7 6
12 12 13 13 14 14 15 15 16 16 16 15 15 15 16 17 18 18 17 16 15 14 14 13 11 10 11 10 8 8 7 6 6 5 5 4 4 5 5 5 5 6 6 6 5 5 5 5 4 4 4 5 5 5 5 5 5 6 5 5 5 6 6 6 6 7 8 7 7 8 8 6 4 5 5 5 6 8 8 7 7 7 7 7 7 8 8 7
11 11 12 12 13 13 14 14 15 15 15 14 14 14 15 16 17 18 18 17 15 14 14 14 12 11 11 11 9 8 8 8 7 6 6 5 5 5 5 5 4 5 5 4 3 3 3 3 4 3 3 4 4 5 6 6 6 6 6 6 6 6 7 7 5 6 8 9 9 9 9 8 6 6 6 6 7 8 8 8 8 8 8 8 8 9 9 9
10 10 11 11 12 12 13 13 14 14 14 14 13 13 14 14 15 16 18 18 17 16 15 14 14 13 13 12 11 10 9 9 9 8 8 6 6 6 6 5 5 4 3 3 3 3 2 3 2 1 2 2 3 4 5 5 5 5 6 6 6 6 7 7 6 6 8 9 9 10 10 10 8 7 7 7 8 9 9 9 9 9 9 9 9 9 10 10
9 9 9 10 10 11 12 12 12 13 14 14 14 14 15 15 14 15 15 16 17 16 16 15 14 14 14 13 13 11 10 10 11 10 9 7 6 6 6 5 5 4 3 3 3 2 2 2 1 1 1 2 3 3 4 4 4 5 5 6 6 7 6 6 7 6 8 9 9 10 11 11 10 9 8 8 9 10 10 11 10 10 9 9 10 10 10 10
8 8 8 8 9 10 10 11 11 12 12 13 14 15 16 15 14 14 13 15 17 16 15 16 14 15 14 13 14 12 10 12 13 12 10 7 5 5 5 5 5 5 4 3 3 3 2 1 1 1 2 2 3 3 4 4 4 5 5 6 6 5 5 5 6 7 8 9 9 10 11 12 12 11 10 10 11 11 11 12 11 11 11 10 10 10 10 10
8 7 7 7 8 8 9 9 9 10 11 13 14 14 14 14 13 13 12 13 15 16 15 16 15 16 15 14 14 12 12 12 12 13 11 8 8 6 5 5 5 4 3 2 1 2 2 1 1 2 3 3 3 4 5 5 5 5 5 6 4 4 5 5 6 7 8 9 9 10 11 12 12 12 12 12 12 11 11 12 12 12 12 11 11 11 11 11
8 7 7 7 6 7 7 7 8 9 10 11 13 13 12 12 12 12 12 12 14 15 15 15 15 16 15 14 13 13 14 14 13 13 12 10 9 7 6 6 5 4 4 3 3 3 3 2 1 2 3 4 3 3 5 6 5 4 5 6 4 4 6 6 5 6 8 9 10 10 11 11 11 13 13 12 12 12 11 11 12 12 12 13 12 12 12 13
8 7 7 6 6 6 6 6 7 8 8 9 11 11 10 11 11 10 10 10 12 13 12 13 13 14 14 12 12 13 14 14 14 13 12 11 10 8 8 6 5 6 5 4 4 4 4 3 2 2 1 2 3 2 4 5 5 3 3 4 4 4 5 5 4 5 7 9 9 9 11 10 9 12 13 12 11 12 12 12 13 13 13 14 13 13 14 14
8 7 6 6 6 5 4 5 6 6 7 8 8 8 9 9 9 10 9 9 11 11 10 11 11 12 12 11 12 11 11 13 13 13 12 11 10 9 8 7 7 7 7 6 5 4 4 3 2 2 2 2 2 2 4 5 5 3 3 4 4 5 5 4 5 7 8 7 7 9 11 10 10 11 12 11 11 12 12 13 13 13 13 13 13 14 14 15
7 7 6 5 5 5 3 4 4 5 5 6 7 6 7 7 8 9 7 8 10 10 10 11 11 11 12 12 11 9 10 11 11 13 13 11 10 9 8 8 8 8 7 5 5 6 5 4 4 3 2 2 2 3 5 5 5 3 3 5 5 5 6 5 6 8 8 7 7 9 10 12 11 10 9 9 11 12 12 13 13 14 13 13 14 14 15 15
7 6 5 5 4 4 3 3 4 5 5 5 5 5 6 6 7 7 5 7 9 8 8 10 10 10 11 11 13 11 11 10 9 12 12 11 11 9 9 10 9 9 7 5 6 7 7 7 7 5 4 4 4 4 5 5 5 4 4 5 5 6 7 7 8 8 7 8 9 7 8 11 10 7 7 8 10 11 12 13 13 13 14 14 14 15 15 14
7 6 5 4 3 3 3 3 4 4 5 4 4 4 5 6 5 5 5 7 7 6 7 8 8 9 9 10 13 12 12 11 11 11 11 11 12 11 11 11 9 10 9 8 9 8 8 8 8 8 7 6 6 6 6 6 5 4 5 6 6 6 7 7 8 7 6 8 8 5 7 10 10 7 6 7 9 9 10 11 12 12 13 13 13 14 13 13
6 5 4 3 2 2 3 3 3 3 3 3 3 4 4 4 3 3 4 6 6 6 6 6 7 7 7 9 11 11 12 12 11 11 11 11 12 12 11 10 9 10 11 11 11 9 8 8 8 9 8 7 7 6 6 6 5 5 5 6 5 6 6 6 6 6 7 7 5 4 7 9 10 7 6 7 8 8 8 9 9 10 11 11 11 12 12 13
6 4 3 2 2 2 2 3 3 2 2 2 3 3 3 3 2 2 5 5 5 5 5 6 7 6 6 8 9 10 11 11 11 10 11 10 11 11 10 9 9 9 10 10 10 9 9 8 8 9 9 9 7 5 5 5 5 4 4 5 5 4 4 5 4 4 6 5 4 5 6 8 9 6 5 7 8 8 8 8 7 8 8 9 9 10 11 12
5 4 2 1 1 2 2 2 2 1 1 1 2 2 2 2 2 3 4 3 3 4 4 5 6 6 7 8 8 8 9 10 11 11 10 10 10 10 10 9 8 8 8 8 8 8 9 9 9 8 9 10 9 7 6 6 6 6 5 5 5 4 3 4 3 4 6 4 4 5 6 7 7 5 7 9 8 8 8 7 7 7 7 7 8 9 10 11
5 4 2 0 1 1 1 1 1 1 0 1 2 2 1 1 1 2 3 2 3 4 4 4 5 5 5 6 7 7 7 8 9 9 9 9 9 10 10 10 8 7 7 8 7 6 7 8 9 8 8 10 11 9 8 8 8 9 7 6 6 5 4 4 4 5 5 4 4 5 6 7 5 4 7 8 7 6 6 6 7 7 7 8 9 9 10 11
5 3 2 2 1 1 1 0 1 1 0 2 2 2 1 1 1 2 1 2 3 3 3 3 4 5 5 5 6 6 6 7 8 7 7 7 8 9 9 10 9 8 7 7 7 7 6 7 9 9 8 9 11 10 10 9 8 9 8 7 7 7 6 5 6 6 6 6 5 5 6 7 6 6 7 6 5 5 5 6 7 7 8 9 9 10 11 11
5 3 3 3 2 2 1 1 1 1 1 2 2 2 2 1 1 1 1 2 3 3 3 3 3 4 5 5 5 5 5 6 6 6 7 7 8 8 8 9 9 8 7 6 7 7 7 8 9 9 8 9 10 10 10 9 7 8 8 6 7 7 6 6 6 6 7 8 6 5 6 7 7 7 6 5 5 5 5 6 7 7 8 9 10 10 10 11
5 4 4 4 3 2 2 1 1 1 2 3 3 2 2 1 1 2 1 2 2 3 3 3 2 2 3 4 4 4 4 4 4 5 6 7 7 7 7 8 8 8 7 7 6 6 6 7 8 7 7 9 9 10 10 10 8 7 7 7 8 8 7 6 5 5 6 6 5 6 7 6 6 6 4 5 5 5 6 6 7 7 8 9 10 10 11 11
6 5 5 5 4 3 3 2 2 2 3 3 3 2 1 1 1 2 2 2 2 2 3 2 1 1 2 2 3 3 3 3 3 3 4 5 5 6 7 7 8 7 7 7 6 6 6 6 7 6 6 7 8 8 9 10 10 8 8 8 7 6 6 6 6 6 6 6 6 6 8 7 6 6 4 4 5 6 6 7 8 8 9 10 10 10 11 12
7 7 6 6 5 4 4 3 3 3 3 3 2 2 2 2 2 2 3 2 2 3 3 1 1 1 0 1 2 2 2 2 2 3 3 3 4 5 5 6 7 7 7 6 6 6 6 5 6 6 6 7 6 6 7 10 11 9 8 8 7 7 6 7 7 7 8 8 7 7 7 7 6 6 6 6 6 7 8 8 9 10 10 10 10 11 11 12
9 8 7 7 6 6 5 4 4 4 4 4 3 2 2 2 2 2 3 2 2 3 2 0 0 0 0 1 1 1 1 2 2 2 2 3 3 4 4 5 6 6 6 6 6 6 5 5 5 6 6 6 6 6 6 8 9 9 7 8 8 8 8 8 8 8 8 8 8 8 8 7 7 8 8 8 8 9 9 10 10 10 10 11 11 11 12 12
10 9 8 8 7 7 6 6 6 6 5 4 3 2 3 3 3 3 3 2 2 1 1 0 1 1 1 0 1 1 1 2 1 2 2 2 2 3 4 5 5 6 6 6 6 6 5 5 5 6 6 5 6 7 8 8 8 8 7 8 9 8 8 8 7 8 8 8 9 9 8 8 8 9 9 9 9 9 9 10 11 11 12 12 12 12 12 13
11 10 9 8 8 7 7 7 7 6 6 4 4 3 3 3 3 3 3 3 2 0 0 0 0 0 1 1 1 1 1 1 0 1 1 1 2 3 4 4 4 5 4 5 6 6 5 5 5 5 5 6 7 7 8 8 8 9 8 9 9 9 9 8 7 8 8 8 9 10 9 8 8 9 10 9 9 9 10 11 11 12 13 13 13 13 13 13
12 11 9 9 9 8 9 8 7 6 6 6 5 4 4 3 4 4 4 3 2 1 1 0 1 1 1 1 1 1 1 1 0 0 1 1 2 3 3 4 4 4 4 4 6 6 6 5 4 5 5 6 7 7 7 7 8 8 8 9 9 9 9 9 9 9 9 8 9 9 9 8 8 9 10 10 10 10 11 12 13 14 15 15 15 14 13 13
13 12 10 10 10 9 10 9 8 8 7 6 6 5 5 5 5 5 4 4 3 2 2 1 1 1 1 1 1 1 1 1 0 0 1 1 2 3 3 3 3 4 4 5 5 5 5 4 4 4 5 5 5 5 6 6 7 7 8 8 8 8 9 9 9 10 9 9 9 9 8 8 9 10 11 10 11 12 12 13 14 14 15 15 14 14 13 12
13 13 12 11 11 11 11 10 10 10 8 7 7 7 6 5 5 5 5 4 4 3 3 2 1 1 1 1 1 0 0 1 1 0 1 0 1 3 3 2 3 4 5 5 6 5 4 4 4 3 3 3 3 4 4 5 6 7 8 8 8 8 8 8 8 9 9 9 9 10 9 9 10 11 11 11 12 13 14 14 14 14 14 13 13 12 11 11
14 14 13 13 12 11 12 11 10 10 10 9 9 9 8 7 5 5 5 4 4 4 3 2 2 1 0 0 0 0 0 1 1 0 1 0 1 2 2 2 2 4 5 5 6 5 4 5 4 4 4 3 4 5 5 6 7 7 7 7 7 7 7 8 9 8 9 9 9 9 10 11 12 13 13 13 13 14 15 15 14 14 13 13 12 11 10 10
15 14 14 14 13 12 12 11 11 11 11 11 10 10 10 9 7 6 6 5 5 4 4 3 2 2 2 2 1 1 1 1 1 1 1 0 0 1 2 2 2 3 4 5 5 5 4 4 5 5 5 5 6 6 6 7 7 7 8 8 8 7 7 8 9 9 10 11 10 9 10 13 14 14 14 14 14 14 14 15 15 14 14 13 12 11 10 9
16 15 14 14 13 14 13 13 13 13 12 12 11 11 11 10 9 7 7 6 6 5 5 4 4 4 3 3 3 2 1 1 1 1 1 1 0 1 1 2 2 2 3 4 5 5 4 4 5 5 5 5 6 6 6 6 7 8 8 8 7 8 8 8 9 10 11 11 10 11 12 14 15 15 15 15 14 14 15 15 15 15 15 14 13 12 11 10
16 15 14 14 14 14 14 14 14 13 13 13 12 11 12 12 10 9 8 7 7 7 6 6 6 6 5 5 4 3 3 2 2 2 2 2 1 1 1 1 2 1 2 3 4 5 4 4 4 4 4 4 5 5 5 6 8 8 9 8 7 7 7 7 8 10 10 10 11 13 15 15 15 14 14 14 15 15 16 16 16 15 15 14 14 13 12 12
16 15 15 15 15 13 12 13 13 14 14 13 12 12 13 13 12 10 8 8 8 8 8 7 8 7 6 6 5 5 4 4 3 3 3 3 3 2 2 2 2 2 2 3 4 4 5 4 4 4 4 4 4 5 5 7 8 9 9 8 7 7 6 7 9 11 10 11 13 14 15 15 14 13 14 14 15 16 16 16 15 15 14 14 14 14 13 13
16 16 15 15 15 14 13 13 13 14 14 13 13 14 14 14 13 11 10 10 10 9 9 9 8 8 7 7 7 6 6 5 5 4 4 4 4 4 3 3 3 2 3 3 3 4 4 4 4 5 5 4 3 5 6 7 9 9 9 9 8 7 8 8 9 10 10 11 12 13 14 14 12 12 14 15 15 16 16 15 15 15 15 14 14 14 14 14
16 16 15 16 16 15 14 14 14 15 15 15 15 14 14 15 15 12 11 11 10 10 10 10 9 7 7 8 8 7 6 6 6 5 5 5 4 4 4 4 4 3 3 3 3 3 4 4 4 5 6 4 3 5 7 8 9 8 8 8 7 7 8 8 8 8 9 10 11 12 13 13 12 13 15 15 15 16 16 15 15 15 15 15 15 15 14 14
17 17 17 17 16 15 15 15 14 15 15 14 14 14 14 14 14 13 12 11 11 10 10 10 9 8 8 9 9 7 6 5 5 5 5 5 5 4 4 4 4 4 4 3 3 4 4 4 4 5 6 5 4 7 9 10 8 6 7 8 7 7 8 9 9 9 8 9 10 12 13 14 14 15 16 16 16 16 16 15 15 15 16 16 15 15 14 13
Wind_Direction
15 15 14 16 18 21 23 27 32 36 41 45 50 55 58 58 57 56 54 52 50 48 50 59 71 84 98 108 114 121 127 131 134 132 130 128 130 134 137 142 144 145 144 141 140 139 141 143 143 145 144 141 139 138 139 139 142 146 146 147 147 144 146 143 134 137 136 132 132 132 129 118 110 105 110 115 114 115 112 107 114 122 127 134 138 141 142 143
17 18 17 19 22 26 28 32 37 40 44 48 53 56 58 57 56 55 53 52 52 56 62 71 79 89 97 104 111 116 121 127 124 116 118 123 126 129 132 138 142 143 143 142 143 142 142 142 141 144 142 137 138 140 140 141 146 146 146 148 143 141 145 137 128 133 134 129 128 128 125 117 111 114 126 127 122 122 121 122 126 126 129 134 136 139 142 144
19 20 20 22 26 29 32 36 41 45 48 52 55 56 57 56 54 54 53 54 59 65 71 77 84 91 98 104 112 117 119 121 115 109 114 121 123 126 131 137 140 142 144 142 144 144 141 140 141 142 139 137 138 140 140 142 147 144 146 148 140 141 143 132 130 132 128 127 126 124 120 113 110 120 136 134 130 132 134 140 143 139 139 139 139 140 143 145
21 22 22 24 28 32 35 39 43 47 50 52 54 54 55 53 53 53 53 58 65 71 75 80 87 92 99 106 112 116 119 114 107 107 114 119 123 126 131 136 140 143 144 143 143 142 141 141 142 142 139 135 134 138 136 138 145 142 141 142 138 138 135 126 129 129 127 127 122 121 120 112 110 120 139 143 143 150 151 154 155 151 147 143 144 144 146 148
23 24 24 26 30 35 37 40 44 47 50 51 52 52 52 52 53 54 56 62 69 74 78 82 87 93 101 108 113 117 120 113 108 110 113 117 123 125 130 136 140 143 144 144 142 141 142 143 143 143 140 133 132 134 129 129 137 133 129 133 135 134 128 125 128 127 127 126 123 125 121 113 116 115 129 146 151 156 160 163 160 155 152 147 147 149 150 152
24 25 26 27 32 37 38 40 42 47 50 50 51 51 52 52 54 56 58 65 72 76 78 81 87 93 100 106 112 118 118 114 113 113 112 115 119 122 127 131 135 140 144 143 142 143 143 144 145 142 138 134 132 129 125 127 134 131 128 129 130 129 126 127 129 129 133 134 130 123 110 120 125 112 107 93 104 138 154 163 160 156 155 150 150 153 154 155
26 27 28 29 33 37 40 41 42 45 48 50 51 52 52 53 55 58 61 67 73 76 76 80 87 93 100 105 108 109 107 109 112 111 111 114 117 120 123 126 131 136 141 143 143 143 143 147 147 143 137 134 133 128 127 129 132 132 132 130 127 126 127 128 132 136 140 134 124 116 115 126 126 125 125 102 106 136 149 158 157 154 156 152 153 156 155 158
26 28 30 31 33 38 41 42 43 45 48 50 51 52 53 55 57 59 62 66 72 77 76 81 89 95 102 106 107 105 102 102 106 107 110 112 113 118 120 123 128 133 139 143 146 144 144 148 148 147 140 134 134 132 132 129 125 132 135 134 131 128 128 131 135 137 136 132 127 123 114 106 110 121 123 114 120 136 144 151 153 154 156 155 158 160 160 163
28 30 32 33 34 38 42 44 44 46 48 50 52 53 54 56 58 59 62 65 72 78 79 84 92 97 103 105 107 105 100 99 102 105 108 110 112 117 121 123 127 133 137 138 145 147 147 149 150 151 142 138 139 137 140 135 127 134 138 138 138 134 134 138 140 139 138 143 143 128 111 105 118 120 112 120 136 142 147 151 153 156 154 154 162 165 166 169
29 31 33 35 35 39 43 45 46 47 49 52 53 54 56 57 59 60 60 64 73 81 84 89 92 98 104 105 107 106 102 101 102 104 107 108 111 117 121 125 127 133 136 136 145 150 149 149 149 148 141 140 144 141 144 143 136 136 135 135 138 135 139 147 146 145 143 147 162 149 122 117 141 169 135 137 149 151 154 156 157 159 156 159 166 169 172 177
31 33 34 36 38 40 43 45 47 49 51 52 53 55 56 57 58 59 59 65 74 83 88 91 93 97 101 101 104 105 105 104 102 104 108 110 112 115 117 122 127 130 135 138 144 151 151 146 146 148 148 145 143 136 130 136 140 137 132 131 134 134 136 148 151 155 158 152 180 164 132 131 167 202 144 147 157 158 159 161 162 165 166 171 174 177 184 189
33 34 36 37 41 42 44 47 48 51 52 53 54 55 56 57 55 57 61 69 78 87 92 92 94 97 96 96 98 101 105 104 103 105 107 112 115 115 114 118 124 125 128 133 140 150 151 149 152 152 153 154 146 139 135 141 146 145 142 138 141 145 140 151 163 175 185 168 172 171 161 171 179 152 138 148 158 161 163 163 165 169 173 179 183 189 196 202
34 35 37 39 43 44 45 48 50 52 53 53 55 55 56 55 55 58 63 73 83 90 94 91 93 95 94 95 95 96 99 100 102 105 107 110 116 118 114 115 120 120 120 122 131 145 150 154 156 145 150 157 150 147 149 153 155 155 160 155 155 166 167 176 186 187 184 163 171 201 214 192 171 150 146 154 163 168 172 171 171 174 178 184 191 196 200 205
34 36 37 40 44 45 46 49 52 53 53 54 55 56 56 55 58 62 67 77 85 90 92 90 91 92 92 95 96 94 95 98 96 97 104 108 116 122 118 116 119 119 119 119 125 137 145 152 153 145 149 154 147 148 150 160 170 166 173 179 186 195 187 189 201 198 192 182 197 237 254 200 175 159 156 165 175 180 182 181 184 186 188 191 194 200 201 206
35 36 39 42 44 46 48 50 53 54 54 55 56 58 59 59 62 65 71 78 83 87 89 88 90 91 90 92 93 92 93 96 90 87 100 108 115 119 119 120 120 119 118 118 125 131 138 147 150 149 148 148 151 155 155 167 182 180 192 205 217 225 202 202 214 216 221 212 214 244 257 202 189 172 169 179 184 191 195 191 195 197 199 202 203 207 207 209
36 37 39 42 45 47 49 51 54 54 54 55 56 59 61 62 65 68 73 77 79 83 85 85 85 84 85 86 87 86 84 82 81 88 102 110 116 116 120 126 124 121 119 119 126 131 135 139 141 145 151 158 164 166 167 180 191 205 237 237 228 237 220 212 218 224 236 224 218 239 255 219 210 190 180 194 198 203 207 201 203 206 209 215 217 216 214 214
36 37 38 42 44 46 49 51 53 54 54 54 57 60 63 65 66 69 73 76 77 79 80 79 79 80 80 81 81 75 68 64 68 83 99 110 124 130 133 133 131 128 125 124 127 130 134 139 146 154 167 178 182 184 193 212 213 226 255 248 237 245 231 219 223 226 233 234 227 234 246 245 226 210 196 203 210 212 216 210 210 216 221 225 227 226 224 224
35 36 38 40 44 46 49 50 51 53 54 53 58 62 65 67 67 68 72 75 77 77 77 73 72 79 77 72 72 68 61 64 70 74 84 98 115 137 145 138 138 144 140 133 132 139 145 157 172 175 185 194 200 215 241 252 241 242 251 248 245 246 240 234 233 229 228 236 239 238 245 244 232 227 215 209 216 220 222 221 220 223 228 230 232 233 232 233
35 36 37 39 42 45 49 50 49 51 52 54 61 65 68 70 70 69 69 71 73 72 73 67 65 75 75 67 64 65 66 69 72 72 79 89 100 126 144 143 143 155 160 151 147 158 162 172 182 184 194 210 226 250 272 270 252 250 253 256 257 251 250 246 245 240 230 236 244 241 246 246 239 240 233 225 225 227 228 227 229 231 232 234 235 237 238 239
34 34 36 38 40 44 47 49 48 48 52 58 65 69 71 71 73 72 67 67 67 66 68 66 65 71 73 67 62 64 72 72 70 69 74 83 94 114 129 141 143 144 157 154 146 164 182 180 183 213 233 256 267 270 281 274 257 258 258 262 261 254 254 246 247 250 237 242 248 244 249 250 246 247 245 239 233 233 234 232 235 237 236 237 238 240 241 243
32 33 34 36 38 42 44 47 49 50 55 63 68 72 72 69 71 73 69 68 66 64 66 66 65 68 67 65 62 63 72 73 68 65 70 80 91 105 116 136 140 127 133 142 138 164 200 185 154 314 298 295 285 270 277 274 262 262 263 269 263 257 259 247 248 252 241 248 254 249 253 252 249 251 250 248 245 243 242 240 240 240 239 240 241 244 245 246
27 30 32 34 36 40 42 46 51 54 59 67 71 75 76 71 73 74 71 71 69 64 66 66 66 68 66 65 62 61 68 70 64 59 60 70 81 88 102 121 121 115 129 147 148 164 179 148 96 325 296 288 284 273 273 274 271 270 270 275 265 257 266 253 249 254 245 252 260 255 257 257 253 255 253 251 252 252 249 247 247 244 241 242 244 247 248 246
23 25 27 31 35 38 41 46 53 59 65 70 72 75 77 74 75 76 72 72 71 66 65 64 64 64 63 63 59 58 65 65 60 57 53 61 76 77 85 100 103 107 120 133 138 151 139 90 20 295 285 281 286 282 276 275 279 282 280 279 270 253 268 269 255 253 249 254 266 264 264 263 258 258 257 253 253 254 252 249 249 248 245 245 247 248 248 247
19 19 21 25 32 37 39 46 58 67 71 73 72 74 76 74 76 77 73 72 73 68 64 64 64 61 60 62 59 59 66 63 58 56 51 58 72 72 74 82 89 96 91 81 83 87 83 55 340 287 281 281 287 296 290 284 280 289 294 293 287 258 270 286 274 258 256 257 265 272 273 266 260 262 260 255 252 251 250 248 247 247 247 250 251 249 249 252
15 16 17 18 26 31 37 55 69 74 74 76 75 74 73 71 75 78 74 75 74 67 64 65 62 59 58 60 60 63 69 64 57 56 54 55 61 68 73 68 70 85 83 81 88 79 64 35 333 307 316 303 296 320 320 299 286 291 309 310 302 277 276 287 276 266 273 268 260 267 277 273 268 269 264 257 253 249 248 249 248 247 248 251 251 250 252 254
11 15 16 16 20 24 44 72 78 77 79 80 76 71 69 70 78 80 74 78 75 62 58 61 58 56 56 57 58 63 67 64 59 56 56 56 58 64 70 66 68 76 75 74 77 66 53 36 359 344 348 339 329 353 347 317 295 294 314 315 304 293 285 279 272 274 284 287 268 264 277 282 282 275 263 258 258 252 249 250 251 251 251 252 252 253 254 255
8 11 15 20 21 29 63 85 82 84 84 80 74 68 69 75 84 81 75 78 75 63 57 59 57 55 56 56 56 60 63 63 62 56 52 54 59 62 67 69 71 72 67 66 68 57 45 45 41 19 353 349 350 353 348 323 303 308 319 306 296 293 291 285 282 282 287 295 280 266 273 283 284 275 263 264 264 259 255 254 254 252 253 253 253 256 256 257
3 7 14 23 26 42 75 90 89 89 86 78 70 68 76 86 87 77 71 73 70 65 61 60 60 58 59 60 58 62 64 59 58 55 51 55 58 60 67 68 67 71 64 53 68 64 46 45 41 22 13 14 8 356 346 324 307 320 318 300 295 292 292 291 289 288 292 295 283 266 271 284 284 276 271 272 269 265 262 261 259 254 253 253 254 258 258 257
357 1 13 21 29 59 87 98 98 95 89 77 66 75 88 93 86 70 68 72 70 70 67 63 63 60 61 64 60 62 63 57 55 55 54 59 59 60 67 66 66 73 65 54 69 72 55 47 36 25 26 24 16 7 355 337 324 328 310 293 287 282 284 289 292 293 294 292 289 278 281 287 286 277 277 280 277 276 272 267 264 257 254 254 255 258 257 256
348 353 9 18 41 84 99 108 108 100 91 78 70 89 100 93 83 70 73 74 70 73 69 62 62 60 63 69 64 61 60 58 56 57 59 63 62 63 68 67 66 71 69 64 69 72 63 51 41 38 34 22 16 15 10 355 339 327 307 294 285 280 284 287 291 294 291 291 302 307 295 289 286 281 284 292 289 286 280 274 269 261 256 255 256 258 260 261
338 342 2 23 64 93 103 114 117 106 90 79 87 104 110 93 76 68 78 79 71 73 71 65 66 65 66 68 66 63 62 59 55 55 61 64 62 63 64 65 66 69 72 69 67 70 66 56 51 47 37 27 22 23 25 15 360 343 329 322 302 287 291 287 279 287 292 303 328 320 304 288 283 285 294 298 292 285 280 277 273 265 259 259 261 264 267 268
327 326 339 27 79 95 112 120 117 117 95 88 117 124 115 110 96 76 85 91 77 72 71 66 67 70 73 73 68 63 60 59 55 55 59 62 60 58 54 54 58 62 65 62 63 68 60 51 51 51 42 30 22 26 35 32 24 13 4 355 330 317 321 305 295 298 302 318 332 324 314 294 286 296 306 302 294 287 282 279 278 272 267 268 270 272 273 275
315 309 297 197 131 112 119 128 135 157 131 142 154 145 138 169 114 83 87 91 79 77 75 70 70 73 77 78 71 63 59 57 54 56 58 58 61 61 56 52 48 46 53 55 60 63 57 53 48 45 44 32 26 33 36 29 25 22 18 11 359 357 352 329 323 322 320 326 327 323 315 301 296 313 318 312 302 294 286 281 281 277 275 277 278 279 280 281
301 286 249 200 187 173 155 180 216 247 215 182 179 169 201 224 106 96 99 92 98 104 92 82 84 79 71 71 68 61 60 59 54 56 60 59 60 61 57 52 44 43 50 53 52 43 42 51 44 36 38 33 32 35 28 19 20 24 21 13 16 20 8 350 345 342 338 332 325 321 315 312 314 316 318 316 305 296 287 281 280 278 279 282 281 282 284 286
284 255 224 214 216 217 238 264 237 238 207 192 201 206 223 236 147 153 145 111 125 132 113 100 99 86 77 74 67 55 53 60 59 55 56 57 55 53 50 47 43 41 40 42 47 39 35 46 43 38 37 32 33 33 23 16 21 28 24 16 23 24 9 360 357 353 343 331 329 331 323 322 324 319 314 307 296 291 287 283 281 282 284 284 283 284 286 289
259 231 222 223 229 237 247 252 236 220 204 208 225 227 232 256 180 164 144 139 147 146 140 132 110 83 82 80 74 65 53 57 65 59 57 57 54 50 47 43 37 33 31 36 45 40 37 48 46 39 39 34 31 29 25 23 23 24 22 23 25 17 5 1 1 3 346 332 342 346 332 329 332 329 318 299 291 288 286 285 286 290 290 287 286 288 290 293
242 231 228 226 233 244 242 241 239 219 212 226 241 245 237 222 202 172 150 159 162 162 173 155 95 56 71 79 79 77 64 62 64 52 54 59 50 44 46 43 34 28 31 35 40 35 31 47 48 32 34 37 27 24 31 30 22 18 24 27 22 15 13 7 2 6 357 349 355 350 338 335 335 335 328 308 298 291 289 289 290 291 290 289 289 291 294 296
240 235 231 229 236 239 235 242 243 225 223 232 235 242 236 202 187 175 157 159 168 185 205 203 74 35 31 71 80 76 53 49 54 41 47 54 43 37 39 42 35 30 29 25 33 38 27 38 49 30 25 35 27 22 35 35 27 26 33 30 19 16 19 12 5 2 357 355 357 351 344 344 348 351 345 333 322 310 303 300 297 296 294 295 295 294 296 296
236 234 230 232 236 235 237 246 241 228 230 232 217 217 226 194 170 177 174 169 174 189 207 221 34 271 289 326 47 65 2 0 30 31 30 39 43 36 26 31 36 35 31 24 31 38 22 23 42 34 26 31 30 24 24 30 31 33 37 33 25 20 14 10 9 4 354 353 354 351 351 358 4 359 348 340 334 324 315 309 304 303 302 301 300 298 298 296
232 234 232 232 235 236 239 241 232 226 229 232 222 213 211 191 170 176 188 182 173 186 208 179 205 229 214 294 332 360 340 348 9 6 14 35 43 37 26 25 35 38 36 35 35 32 19 16 28 33 30 27 28 26 21 20 23 25 27 24 22 21 14 8 11 9 359 354 354 350 349 358 5 360 353 347 341 333 325 319 312 308 306 304 302 300 299 298
231 234 232 232 237 236 234 232 228 229 228 226 222 210 206 201 182 174 186 196 192 173 293 228 217 255 223 261 297 310 320 320 347 360 18 41 21 23 25 18 20 27 29 34 32 23 14 11 15 23 28 28 29 25 19 17 16 16 18 16 14 15 9 3 11 15 4 356 356 349 346 357 5 0 356 353 347 341 334 326 318 311 307 304 301 299 298 298
230 232 231 233 238 236 232 229 227 232 230 224 220 210 210 216 198 181 187 204 214 206 211 252 2 341 288 305 315 276 270 277 200 341 8 38 17 20 27 13 4 4 7 18 24 19 11 5 11 22 26 29 32 27 17 15 13 13 16 16 12 10 6 1 3 7 1 356 357 349 347 1 8 0 355 353 349 343 336 329 322 317 311 305 300 298 297 296
231 233 231 233 238 236 232 227 223 227 227 224 223 216 216 221 209 200 204 212 220 216 212 228 296 322 315 322 313 256 247 277 270 335 24 67 37 26 24 10 357 356 2 11 16 15 9 2 9 26 32 33 32 26 17 10 5 6 14 15 9 8 6 358 356 357 353 354 357 351 350 0 2 356 351 349 345 340 337 334 329 326 321 314 307 301 298 296
236 236 233 233 236 234 231 227 223 222 221 221 221 217 219 226 223 219 218 219 228 228 220 231 265 297 322 332 311 264 249 286 270 322 348 9 35 25 17 360 351 359 9 10 7 7 6 3 360 7 22 25 17 15 14 7 2 3 10 12 6 5 0 352 353 352 347 354 358 349 349 357 358 352 347 343 340 339 340 340 337 335 332 327 320 313 305 300
236 235 233 233 235 232 232 233 230 224 218 217 218 216 217 222 229 237 233 224 235 242 235 237 247 245 207 173 169 103 293 307 310 306 319 345 47 29 12 351 337 357 18 15 5 4 6 4 356 347 352 360 4 11 10 4 3 3 4 4 360 358 355 351 350 346 348 357 351 336 338 348 350 347 345 343 341 340 342 344 344 343 342 338 333 326 316 307
234 233 231 230 232 232 233 235 234 228 221 218 220 221 221 220 222 235 239 230 231 240 239 235 231 222 207 200 197 184 210 294 317 282 256 256 50 16 4 354 348 13 28 17 4 5 12 14 7 360 4 9 10 12 8 357 355 356 354 354 354 351 348 345 342 343 350 349 341 337 337 337 340 343 344 345 344 343 344 345 345 346 345 343 338 332 322 310
233 234 232 231 231 231 230 230 230 229 224 221 223 223 222 223 221 227 237 236 230 232 239 240 232 228 222 215 218 218 216 248 280 271 260 261 346 15 356 342 4 27 17 4 3 1 2 16 15 5 9 12 5 4 0 350 347 346 344 345 346 342 342 340 334 339 345 339 339 350 343 332 335 340 342 345 346 345 345 344 342 342 342 341 338 333 326 315
231 233 234 234 233 231 230 228 227 227 224 224 227 225 222 222 223 226 233 233 229 233 239 240 234 234 232 224 229 233 226 240 258 256 262 267 266 285 301 307 334 346 328 346 3 356 350 7 11 355 356 0 354 350 347 342 341 340 337 334 332 333 338 337 330 332 337 330 331 339 336 330 332 336 339 344 344 342 342 341 338 337 336 337 336 332 328 321
231 232 232 232 233 233 233 231 228 226 224 225 229 227 224 223 223 228 233 231 230 235 241 241 236 236 236 232 239 243 237 249 262 256 258 265 264 266 276 301 316 308 301 333 359 356 351 2 360 340 336 342 345 342 337 334 335 336 336 334 332 334 336 334 330 331 332 326 324 328 329 329 331 333 336 340 340 338 338 337 336 335 335 336 335 332 329 325
231 232 230 230 232 232 232 230 227 226 225 227 230 227 227 227 224 227 234 235 234 233 236 242 241 238 238 238 242 249 248 255 266 263 256 257 265 270 277 299 313 300 291 314 343 348 345 350 349 333 326 332 341 333 328 330 332 334 339 343 347 350 344 336 334 335 333 330 329 330 329 331 336 338 336 335 334 334 334 336 338 338 338 337 335 334 332 328
231 231 230 231 230 227 227 227 227 227 226 227 228 227 227 229 226 225 232 239 242 238 235 239 240 238 241 241 242 249 254 256 265 270 260 257 267 271 276 295 300 290 288 300 315 325 330 339 342 327 325 337 341 326 324 327 326 326 333 339 345 347 342 338 339 338 337 338 338 334 333 338 342 339 334 332 332 332 333 335 338 339 340 338 335 334 332 331
231 230 229 231 230 225 225 226 225 226 227 227 227 226 228 229 226 225 231 237 241 242 241 241 239 239 242 241 242 250 256 255 262 270 263 262 271 272 279 292 291 286 287 287 300 313 317 325 333 328 327 338 342 330 327 324 320 325 336 335 331 331 333 337 336 331 329 336 339 337 337 340 340 335 333 333 333 333 333 334 335 337 338 338 336 334 333 333